{"data":{"norad_id":41914,"epoch":"2026-09-20T04:25:21.430848Z","epoch_age_seconds":73938,"freshness":"FRESH","line1":"1 41914U 17002B   26263.18427582  .00009325  00000+0  20867-3 0  9999","line2":"2 41914  97.1985 269.0900 0005857 164.4664 195.6765 15.43669238536507","mean_motion":15.43669238,"eccentricity":0.0005857,"inclination_deg":97.1985,"raan_deg":269.09,"arg_perigee_deg":164.4664,"mean_anomaly_deg":195.6765,"bstar":0.00020867,"rev_number":53650,"period_min":93.284232434772,"perigee_km":431.30043687612,"apogee_km":439.28168650759,"semimajor_km":6813.4280616919,"source":"CELESTRAK","updated_at":"2026-09-20T09:00:14.194208Z"}}